Wind_Speed
7 11 19 18 6 9 15 6 11 8 4 8 9 12 9 4 2 10 14 8 9 12 13 16 15 12 9 7 6 5 4 3 3 4 8 11 13 15 16 18 19 19 20 20 20 18 17 17 20
10 14 19 16 8 19 8 10 9 10 9 9 10 2 8 9 7 5 8 9 8 10 11 13 14 11 8 6 6 5 3 5 6 9 10 15 15 16 17 19 20 20 21 20 20 19 18 20 22
16 19 21 6 11 25 12 10 14 11 12 7 4 9 8 7 8 10 6 11 7 9 12 12 11 9 7 6 5 4 5 8 9 12 13 14 13 13 14 15 17 19 18 17 17 18 19 20 21
21 20 10 12 14 9 17 15 13 8 8 6 4 2 8 8 7 11 10 11 12 10 12 8 6 5 5 5 5 7 9 9 11 11 10 10 10 10 12 13 15 16 16 14 14 15 15 15 15
25 18 9 12 5 11 12 10 6 8 4 5 2 10 9 6 11 10 14 12 10 9 8 7 7 5 5 7 9 9 9 9 7 7 10 11 9 9 12 14 15 16 15 14 14 16 17 16 16
17 9 10 23 11 11 9 7 4 4 7 2 5 8 10 8 10 13 11 9 5 5 6 6 4 7 9 10 7 5 4 3 6 9 10 11 10 11 13 15 17 17 18 19 21 21 21 20 19
11 7 13 11 11 10 8 5 4 4 3 4 9 9 5 10 10 10 7 4 3 4 5 6 8 11 7 3 2 3 3 5 8 10 10 10 11 14 15 18 19 20 22 22 23 24 25 24 23
9 17 20 12 10 9 8 7 6 7 9 8 4 6 8 15 10 8 5 5 5 6 8 9 10 4 4 4 5 6 5 6 7 8 9 11 13 15 17 18 20 22 23 24 26 27 27 27 26
7 20 15 10 9 10 7 7 7 8 2 4 7 4 12 7 9 9 8 7 7 9 8 11 6 4 4 4 5 4 5 7 8 10 11 13 13 15 16 16 19 22 24 26 27 28 30 30 30
8 11 12 9 7 6 7 7 3 5 4 6 8 9 12 11 11 10 10 9 9 11 8 7 4 2 1 5 3 3 4 4 5 7 10 14 15 16 19 21 21 22 23 24 24 27 28 27 28
3 1 8 11 5 4 7 6 4 6 4 6 9 12 14 7 10 10 7 7 9 6 4 8 6 2 1 6 5 4 6 8 7 8 11 14 16 19 21 24 25 27 28 28 27 26 27 26 23
4 7 5 7 10 6 7 6 4 6 4 10 7 6 13 7 3 4 9 9 6 8 9 16 7 6 4 3 1 4 6 8 11 14 16 18 21 22 22 22 25 26 24 24 25 26 27 26 24
4 3 5 6 9 8 8 6 2 6 6 10 9 9 11 7 5 6 8 12 7 13 13 17 12 10 6 3 5 6 9 11 15 19 21 21 23 23 24 23 23 21 20 21 23 25 26 28 28
7 6 8 7 5 3 6 5 6 5 7 5 11 9 9 8 7 8 10 14 13 13 18 21 16 12 9 7 8 11 13 16 18 21 21 21 22 22 21 21 21 20 20 24 27 28 28 28 27
9 9 7 5 4 1 4 7 8 11 7 9 10 10 10 9 8 12 9 14 17 18 18 22 23 10 10 11 12 16 17 20 22 24 24 23 22 22 24 24 26 27 27 29 31 31 31 31 32
8 8 8 8 7 6 7 10 13 10 5 7 9 10 10 12 11 12 12 10 9 17 16 29 18 16 13 18 16 19 21 22 23 26 22 26 29 31 30 29 29 28 28 29 31 30 30 31 31
8 11 8 7 7 5 6 1 7 5 8 10 11 12 11 12 13 14 15 13 11 6 16 9 23 23 22 22 19 22 23 23 24 23 23 32 35 34 35 34 35 36 34 36 35 33 34 33 33
10 9 6 6 7 3 6 8 3 6 9 11 13 11 12 10 12 14 13 9 14 17 20 17 25 22 22 29 24 21 22 24 31 32 28 38 33 38 37 39 41 40 41 42 37 35 37 35 36
7 5 3 10 2 7 7 8 3 4 2 3 5 9 10 8 16 22 23 23 24 21 22 19 22 24 22 27 26 26 28 33 33 32 36 36 37 42 38 40 43 39 44 43 42 41 38 39 37
4 3 6 3 5 4 7 10 6 4 5 7 4 9 11 14 17 21 28 28 21 19 19 18 22 23 22 29 31 28 38 36 35 34 36 41 46 47 49 47 48 47 40 42 40 39 40 41 40
3 3 3 4 4 8 8 9 12 8 7 9 16 14 9 9 17 19 22 17 15 16 16 20 23 23 24 31 34 39 37 37 37 39 48 52 55 52 37 42 42 42 40 38 40 41 43 47 45
3 2 5 7 8 10 15 4 14 13 10 9 11 10 6 6 6 2 9 9 10 11 15 18 22 23 27 33 34 36 38 39 50 49 40 38 38 39 40 38 38 39 43 42 44 46 49 50 52
4 10 6 6 9 10 11 10 21 15 12 10 7 6 4 8 6 10 11 13 15 17 19 23 28 30 32 34 36 40 46 46 46 44 46 43 45 42 39 41 43 46 50 51 50 52 53 55 56
5 7 7 6 8 5 12 2 8 6 8 6 4 3 3 2 8 11 16 21 21 23 25 25 26 30 34 37 39 41 40 40 45 50 53 51 48 46 45 48 51 52 54 54 55 56 56 55 53
7 6 8 3 4 4 2 2 12 10 11 9 5 1 3 3 5 2 3 11 22 24 21 21 23 25 31 39 42 40 46 52 54 49 48 48 50 49 50 52 51 54 57 57 57 53 45 46 38
5 5 4 3 4 3 4 4 12 11 8 7 2 1 5 7 8 8 15 17 22 27 30 30 31 30 34 38 43 48 53 53 48 49 49 51 50 49 49 53 54 56 56 53 53 47 39 35 34
5 5 2 2 4 3 7 13 13 6 5 4 3 5 4 8 10 14 9 16 20 24 29 38 37 36 31 38 43 54 53 51 50 55 52 47 47 47 51 53 53 54 53 48 45 40 38 39 36
7 4 4 5 2 3 10 6 7 5 1 3 2 5 7 12 10 11 11 19 24 29 33 33 36 39 43 40 53 46 46 49 49 46 45 48 48 50 52 53 53 48 45 42 40 38 36 37 36
3 3 3 3 0 2 3 3 2 1 3 6 8 8 9 7 11 15 14 16 23 31 40 34 43 46 44 49 51 48 42 42 42 43 47 49 51 52 50 46 42 39 39 35 35 34 33 33 32
3 2 2 1 1 2 1 11 1 0 3 12 8 7 7 8 17 23 27 30 36 40 39 46 46 47 49 49 48 39 39 39 40 44 47 49 51 48 47 46 44 41 37 35 33 33 35 38 38
Wind_Direction
186 166 160 165 181 251 251 156 108 118 105 61 116 63 54 109 111 118 182 170 209 167 171 177 176 178 189 207 221 238 248 253 271 279 286 289 283 285 291 294 294 294 293 290 290 288 287 291 294
175 162 158 162 233 255 195 132 118 112 108 96 95 71 35 48 11 99 184 164 202 173 159 176 189 198 217 239 235 222 236 273 276 288 282 291 293 298 300 300 299 302 301 300 298 294 292 293 292
165 163 160 200 242 253 152 150 110 122 110 116 110 101 75 93 132 177 175 163 212 177 173 179 195 221 228 214 207 228 263 275 281 285 293 296 307 314 310 309 309 311 310 308 305 302 298 294 296
157 160 168 235 247 55 124 118 130 130 115 129 144 275 122 122 228 208 170 163 170 141 167 181 193 203 221 234 251 260 273 280 286 295 309 317 327 329 328 322 323 325 324 323 321 319 316 313 313
162 168 220 236 103 102 105 119 114 158 168 151 103 120 116 202 224 183 160 165 184 159 168 187 206 228 266 282 285 289 294 289 297 321 337 338 337 337 334 332 331 330 328 326 325 326 325 323 320
163 176 247 257 127 130 118 112 153 195 138 136 128 130 141 227 173 163 163 179 197 195 207 228 265 301 299 298 297 301 303 292 314 328 333 341 340 334 331 331 331 331 328 325 323 322 319 316 312
159 236 258 136 160 138 140 158 172 186 184 135 143 143 163 156 162 167 182 210 234 258 275 296 304 300 301 303 314 312 311 320 330 329 330 331 327 327 328 329 328 325 322 318 315 313 312 312 310
272 282 272 173 180 155 164 163 175 135 122 146 129 244 194 205 188 199 206 246 271 271 278 293 295 295 360 16 19 13 355 331 328 321 323 319 325 324 326 322 316 313 310 309 307 308 305 303 304
247 282 171 157 181 148 187 171 170 200 143 165 142 100 198 190 202 219 237 241 246 258 279 285 299 334 14 45 42 24 4 346 340 344 330 327 335 328 330 322 317 313 314 310 309 307 305 305 304
270 311 152 127 102 159 175 191 190 140 184 162 168 141 203 229 214 223 235 243 247 243 256 273 269 285 14 46 62 53 5 343 351 353 344 344 347 333 331 327 323 322 317 312 314 311 311 312 310
264 77 133 160 167 155 175 171 155 158 210 207 184 174 226 217 214 232 227 222 214 252 211 248 267 230 181 87 43 27 7 359 345 347 343 343 339 335 334 330 326 326 324 324 329 325 325 328 322
198 98 128 146 160 150 161 174 172 163 125 201 202 209 210 235 238 197 189 213 204 234 245 275 243 219 180 159 89 23 349 357 346 342 331 326 324 328 326 319 319 316 319 323 328 333 333 329 328
178 162 150 165 149 151 192 177 157 211 239 186 161 204 207 214 216 208 187 211 249 218 239 261 260 241 218 246 294 314 330 327 324 317 317 317 318 319 321 322 320 320 321 330 335 335 331 329 326
179 167 152 145 157 185 148 203 203 202 207 214 189 196 211 219 220 227 209 210 214 221 234 256 269 237 255 281 294 303 310 310 311 312 308 310 315 319 321 321 320 317 319 326 326 326 324 322 319
167 164 175 175 189 286 190 217 216 204 193 210 224 209 214 228 214 234 239 213 213 241 238 236 266 289 270 284 288 289 302 303 306 307 301 302 313 317 317 320 326 325 322 323 323 323 321 318 316
179 210 208 171 187 225 244 270 195 206 208 218 235 238 220 224 223 231 242 224 210 239 242 258 208 278 284 281 281 280 287 297 305 307 313 309 310 312 320 317 317 314 313 315 315 313 311 304 300
199 225 196 166 190 207 243 11 156 208 243 242 233 236 227 223 232 228 237 247 231 258 254 294 283 289 280 284 274 276 285 292 302 301 290 304 307 305 313 306 307 305 307 310 308 302 303 298 296
336 228 184 233 174 216 252 241 148 296 274 257 244 235 236 232 223 234 238 213 217 232 248 248 270 282 279 289 287 281 285 295 305 295 289 297 295 300 301 303 301 303 306 305 305 294 293 289 289
347 27 317 103 178 282 248 239 263 47 77 121 174 195 195 191 204 205 209 212 222 222 239 252 264 262 270 281 283 288 299 302 287 288 291 293 293 292 295 295 297 311 305 302 298 293 288 288 286
332 338 276 294 301 239 225 226 149 148 105 118 130 138 164 187 198 215 227 238 236 241 250 250 262 268 278 277 283 289 291 282 278 280 286 290 290 290 300 303 302 302 297 298 292 287 287 286 286
234 294 338 299 287 270 267 212 167 151 133 124 125 124 146 199 226 238 247 253 253 265 257 263 276 293 290 282 285 284 282 287 292 292 293 298 300 304 301 298 301 296 296 296 293 293 291 289 288
307 223 291 286 275 273 197 267 152 165 150 126 112 119 112 103 98 106 260 249 255 261 277 293 298 298 296 286 279 279 287 294 293 305 309 305 303 296 301 297 294 297 299 300 296 292 290 288 285
333 294 289 271 262 272 254 243 161 175 171 148 128 112 146 167 185 223 263 279 273 283 302 311 303 294 290 286 286 292 292 297 302 307 307 308 308 312 307 303 302 300 301 299 297 296 292 291 292
2 316 290 272 249 266 258 257 97 165 145 165 134 113 126 282 281 277 289 289 289 297 308 301 293 302 298 294 296 295 302 302 306 309 309 309 310 304 303 302 301 302 303 302 301 300 299 297 295
351 327 264 232 179 237 84 276 104 143 141 148 141 210 246 219 220 289 276 273 300 301 301 301 299 298 302 305 303 305 306 312 310 305 307 305 303 303 303 303 303 302 303 306 305 304 292 291 291
356 357 38 329 352 3 210 281 121 151 144 138 104 14 344 317 316 291 305 320 318 318 318 317 315 313 308 304 304 305 306 307 307 300 304 304 298 303 306 305 308 307 307 307 306 304 297 295 290
17 39 4 318 351 321 262 109 121 122 103 95 10 33 313 294 292 318 328 328 320 314 314 313 318 321 310 300 304 306 306 308 306 301 304 307 312 311 307 308 310 310 309 306 303 296 293 291 291
48 38 9 19 330 323 343 8 110 180 253 27 52 333 324 314 293 284 307 294 298 294 299 302 305 310 303 294 304 303 301 302 304 310 310 308 310 312 310 309 309 310 306 301 295 289 288 289 287
17 23 15 306 48 290 333 48 67 102 280 313 325 312 308 282 305 323 297 291 285 291 302 295 303 306 309 306 303 296 302 303 307 307 306 309 312 311 310 311 313 310 306 301 297 295 293 286 287
13 0 326 206 296 212 225 272 280 64 268 319 293 321 284 277 275 266 273 292 302 301 295 302 309 306 304 300 297 301 301 301 303 304 306 307 308 312 317 321 320 315 310 309 304 298 293 290 288
Height
3150 3150 3152 3155 3159 3154 3150 3153 3152 3155 3159 3158 3159 3163 3163 3161 3162 3167 3166 3167 3168 3170 3171 3173 3174 3176 3177 3177 3178 3179 3178 3179 3179 3179 3177 3178 3177 3176 3176 3176 3174 3172 3171 3170 3169 3170 3170 3168 3167
3150 3150 3153 3155 3155 3153 3150 3154 3153 3156 3157 3160 3165 3167 3164 3162 3162 3164 3165 3166 3168 3170 3171 3173 3175 3176 3177 3177 3177 3177 3178 3178 3178 3179 3177 3175 3175 3175 3174 3174 3173 3171 3170 3168 3167 3167 3167 3166 3165
3149 3150 3152 3155 3151 3151 3150 3153 3152 3161 3162 3165 3166 3166 3165 3166 3165 3163 3166 3167 3166 3170 3171 3173 3175 3176 3177 3177 3177 3178 3177 3177 3178 3177 3175 3175 3173 3171 3172 3172 3171 3169 3167 3166 3165 3165 3165 3164 3163
3150 3153 3153 3152 3151 3150 3150 3153 3155 3161 3162 3165 3166 3167 3166 3166 3164 3165 3166 3168 3168 3171 3172 3175 3175 3177 3177 3177 3176 3177 3178 3177 3176 3175 3173 3173 3171 3169 3170 3170 3169 3167 3166 3165 3164 3163 3163 3162 3160
3149 3149 3149 3150 3152 3153 3154 3156 3157 3163 3165 3165 3168 3166 3166 3165 3165 3166 3167 3169 3169 3172 3173 3174 3175 3176 3176 3177 3176 3176 3176 3176 3175 3174 3173 3170 3169 3169 3169 3169 3168 3166 3165 3164 3163 3162 3162 3160 3159
3148 3151 3150 3150 3152 3155 3157 3159 3163 3164 3166 3164 3168 3166 3166 3166 3166 3168 3169 3170 3172 3174 3173 3174 3175 3175 3175 3175 3175 3174 3173 3173 3172 3172 3171 3170 3170 3169 3169 3169 3168 3166 3165 3163 3162 3162 3161 3160 3158
3149 3151 3151 3149 3155 3156 3158 3162 3164 3165 3165 3167 3168 3167 3167 3168 3167 3169 3170 3172 3172 3173 3173 3174 3174 3174 3175 3173 3172 3171 3172 3172 3170 3173 3171 3170 3169 3168 3168 3168 3166 3164 3163 3162 3161 3160 3159 3158 3156
3149 3151 3154 3155 3158 3157 3159 3164 3163 3165 3166 3165 3168 3167 3168 3166 3168 3170 3171 3172 3173 3172 3173 3174 3174 3175 3174 3173 3171 3172 3171 3171 3170 3171 3171 3169 3167 3167 3166 3166 3164 3163 3161 3159 3158 3157 3155 3154 3153
3150 3149 3151 3153 3156 3157 3160 3163 3163 3163 3164 3167 3167 3167 3166 3168 3169 3171 3171 3171 3171 3172 3174 3174 3173 3173 3172 3171 3171 3171 3170 3171 3170 3171 3170 3168 3166 3164 3164 3164 3162 3160 3159 3156 3155 3153 3151 3149 3148
3151 3150 3149 3152 3154 3157 3160 3163 3162 3164 3165 3166 3168 3170 3167 3167 3168 3169 3170 3171 3171 3172 3174 3173 3173 3174 3172 3170 3172 3172 3169 3170 3169 3170 3169 3167 3165 3165 3163 3162 3161 3159 3156 3154 3153 3150 3148 3147 3145
3151 3151 3150 3152 3156 3159 3160 3162 3163 3165 3167 3166 3167 3168 3167 3167 3167 3169 3169 3171 3171 3172 3173 3173 3172 3172 3173 3169 3171 3172 3171 3169 3170 3171 3170 3169 3166 3163 3161 3159 3157 3154 3152 3148 3147 3145 3142 3141 3140
3154 3153 3154 3154 3157 3159 3160 3162 3163 3165 3166 3164 3166 3167 3168 3168 3167 3168 3172 3173 3173 3173 3171 3171 3171 3171 3172 3171 3171 3172 3172 3170 3170 3169 3169 3167 3165 3163 3161 3159 3157 3154 3150 3148 3145 3143 3141 3139 3137
3153 3155 3154 3154 3156 3158 3159 3160 3163 3165 3165 3165 3168 3168 3169 3169 3169 3171 3172 3175 3174 3174 3169 3166 3170 3168 3170 3169 3170 3171 3170 3170 3168 3168 3167 3165 3163 3161 3159 3157 3155 3152 3149 3145 3143 3140 3138 3135 3133
3153 3154 3155 3155 3156 3157 3158 3160 3161 3164 3164 3164 3167 3168 3168 3168 3169 3170 3171 3173 3174 3172 3167 3163 3167 3169 3169 3166 3169 3169 3169 3168 3167 3164 3163 3162 3160 3159 3156 3154 3151 3149 3146 3143 3140 3137 3134 3132 3129
3154 3156 3156 3155 3156 3158 3157 3161 3160 3162 3164 3166 3167 3167 3170 3169 3171 3170 3169 3171 3173 3170 3170 3171 3160 3167 3164 3164 3167 3166 3166 3165 3163 3161 3159 3158 3156 3154 3152 3150 3147 3144 3141 3138 3135 3132 3129 3125 3123
3154 3154 3153 3154 3156 3157 3158 3158 3158 3160 3161 3164 3167 3166 3168 3170 3170 3171 3168 3170 3169 3171 3170 3153 3134 3164 3161 3161 3164 3164 3163 3162 3160 3157 3154 3151 3150 3148 3147 3145 3142 3139 3136 3133 3130 3128 3125 3122 3118
3152 3150 3151 3153 3155 3157 3158 3159 3159 3160 3161 3162 3165 3167 3167 3170 3168 3169 3167 3168 3169 3169 3169 3165 3154 3159 3157 3161 3161 3161 3159 3159 3156 3155 3151 3149 3146 3143 3141 3138 3136 3133 3131 3128 3124 3120 3118 3114 3111
3150 3148 3149 3151 3153 3155 3156 3158 3158 3159 3160 3161 3162 3164 3166 3166 3169 3167 3167 3167 3169 3169 3166 3165 3157 3156 3154 3156 3159 3157 3155 3154 3152 3150 3145 3143 3142 3138 3133 3131 3128 3125 3122 3119 3115 3112 3109 3106 3103
3150 3148 3149 3151 3151 3153 3155 3157 3155 3159 3160 3160 3161 3161 3164 3164 3162 3161 3161 3161 3163 3163 3163 3162 3157 3157 3156 3155 3154 3154 3153 3150 3146 3145 3139 3136 3134 3131 3128 3124 3120 3118 3113 3109 3106 3103 3099 3097 3096
3151 3151 3151 3151 3152 3154 3154 3155 3155 3159 3161 3160 3160 3161 3161 3159 3158 3157 3157 3158 3160 3160 3157 3159 3156 3156 3155 3151 3150 3151 3147 3144 3140 3136 3132 3130 3124 3120 3119 3117 3110 3108 3103 3101 3098 3094 3090 3087 3085
3151 3152 3152 3153 3154 3154 3154 3154 3153 3159 3160 3159 3157 3158 3158 3157 3155 3154 3154 3156 3157 3158 3157 3155 3154 3155 3154 3148 3146 3143 3140 3138 3134 3133 3128 3125 3120 3114 3108 3105 3101 3097 3095 3092 3088 3084 3081 3075 3074
3152 3150 3151 3153 3154 3150 3151 3152 3152 3156 3158 3158 3156 3157 3158 3158 3158 3155 3151 3155 3156 3155 3154 3153 3151 3151 3150 3145 3141 3138 3135 3132 3128 3124 3117 3113 3110 3104 3100 3098 3092 3089 3083 3081 3076 3072 3068 3065 3061
3152 3150 3150 3150 3151 3150 3149 3150 3147 3153 3155 3156 3156 3156 3156 3156 3155 3153 3152 3152 3152 3152 3151 3149 3145 3144 3142 3140 3137 3134 3129 3124 3119 3114 3108 3103 3099 3094 3091 3087 3083 3078 3074 3069 3065 3059 3054 3051 3047
3149 3149 3149 3149 3148 3148 3146 3147 3151 3151 3155 3156 3156 3155 3156 3156 3154 3152 3150 3147 3148 3148 3146 3145 3142 3137 3135 3132 3128 3125 3120 3115 3111 3104 3098 3094 3090 3085 3081 3077 3071 3066 3060 3055 3050 3044 3039 3034 3031
3150 3149 3146 3148 3145 3147 3146 3147 3149 3152 3154 3154 3156 3155 3154 3154 3154 3153 3150 3145 3143 3142 3141 3140 3138 3135 3131 3123 3118 3115 3109 3104 3099 3094 3090 3085 3080 3076 3072 3065 3060 3053 3047 3041 3036 3032 3027 3022 3018
3151 3151 3151 3151 3149 3147 3147 3145 3150 3150 3151 3151 3151 3152 3153 3151 3150 3148 3146 3144 3141 3139 3137 3132 3130 3128 3125 3120 3113 3106 3101 3096 3090 3085 3080 3075 3069 3065 3060 3053 3047 3040 3035 3028 3024 3020 3015 3011 3008
3151 3152 3153 3153 3153 3152 3147 3147 3150 3151 3151 3151 3152 3151 3152 3150 3147 3146 3143 3139 3136 3134 3131 3127 3123 3119 3117 3111 3106 3100 3093 3087 3082 3076 3069 3064 3059 3056 3049 3043 3037 3030 3024 3017 3012 3008 3005 2999 2997
3153 3154 3154 3154 3154 3154 3148 3146 3151 3152 3154 3152 3152 3151 3150 3149 3147 3144 3142 3140 3135 3131 3127 3123 3118 3116 3110 3103 3097 3091 3083 3077 3071 3065 3059 3054 3050 3045 3039 3032 3026 3019 3013 3007 3002 2998 2994 2990 2987
3154 3154 3155 3156 3156 3155 3153 3152 3152 3151 3151 3150 3149 3149 3146 3145 3144 3143 3137 3133 3129 3124 3121 3117 3112 3105 3100 3094 3088 3081 3074 3067 3063 3057 3051 3046 3041 3034 3028 3021 3015 3008 3002 2997 2991 2988 2984 2980 2978
3153 3154 3155 3154 3155 3154 3155 3152 3150 3149 3147 3147 3145 3143 3142 3140 3138 3134 3131 3129 3125 3121 3116 3109 3103 3096 3090 3085 3077 3071 3064 3058 3055 3049 3043 3037 3030 3023 3015 3007 3002 2997 2992 2987 2983 2979 2975 2972 2969